Location: Gollag?dem
(17.0207°N, 80.7261°E)
Time: 00:43:57
(UTC+00:00)

Cosmos 2082 Rocket - Pass Details

Date: 03 August 2024
Orbit: 833 x 852 km, 71.0° (Epoch: 12 September)

Event Time Altitude Azimuth Distance (km) Brightness Sun altitude
Rises 15:09:51 0° 333° (NNW) 3,375 6.2 -27.3°
Reaches altitude 10° 15:12:21 10° 328° (NNW) 2,441 5.4 -27.8°
Maximum altitude 15:17:41 47° 256° (WSW) 1,100 3.0 -28.9°
Enters shadow 15:18:57 40° 220° (SW) 1,216 3.0 -29.1°
